Location: Newark
(34.0131°N, 4.3314°W)
Time: 13:38:13
(UTC+00:00)

Explorer 11/Cluster Stage 4 - Pass Details

Date: 30 October 2019
Orbit: 467 x 1259 km, 28.8° (Epoch: 11 November)

Event Time Altitude Azimuth Distance (km) Brightness Sun altitude
Rises 08:38:02 0° 266° (W) 2,897 9.1 22.1°
Reaches altitude 10° 08:40:49 10° 253° (WSW) 1,869 8.3 22.6°
Maximum altitude 08:44:20 26° 197° (SSW) 1,053 7.7 23.2°
Drops below altitude 10° 08:47:29 10° 139° (SE) 1,657 10.1 23.7°
Sets 08:49:49 0° 126° (SE) 2,495 10.6 24.1°
